TimeAKDT,TemperatureF,Dew PointF,Humidity,Sea Level PressureIn,VisibilityMPH,Wind Direction,Wind SpeedMPH,Gust SpeedMPH,PrecipitationIn,Events,Conditions,WindDirDegrees,DateUTC
12:56 AM,55.4,55.4,100,30.11,9.0,Calm,Calm,-,N/A,Rain,Light Rain,0,2013-08-04 08:56:00
1:56 AM,54.9,54.9,100,30.12,4.0,Calm,Calm,-,0.04,Rain,Light Rain,0,2013-08-04 09:56:00
2:13 AM,55.4,55.4,100,30.11,4.0,Calm,Calm,-,0.01,Rain,Light Rain,0,2013-08-04 10:13:00
2:28 AM,55.4,55.4,100,30.11,6.0,Calm,Calm,-,0.01,Rain,Light Rain,0,2013-08-04 10:28:00
2:56 AM,54.9,54.9,100,30.11,6.0,Calm,Calm,-,0.02,Rain,Light Rain,0,2013-08-04 10:56:00
3:14 AM,55.4,55.4,100,30.11,7.0,Calm,Calm,-,0.00,,Overcast,0,2013-08-04 11:14:00
3:56 AM,55.4,55.4,100,30.10,8.0,Calm,Calm,-,N/A,Rain,Light Rain,0,2013-08-04 11:56:00
4:56 AM,55.9,54.9,96,30.10,10.0,East,9.2,-,0.00,Rain,Light Rain,80,2013-08-04 12:56:00
5:56 AM,55.9,54.9,96,30.09,10.0,East,5.8,-,0.00,,Overcast,90,2013-08-04 13:56:00
6:56 AM,56.8,54.9,93,30.09,10.0,East,5.8,-,N/A,,Overcast,90,2013-08-04 14:56:00
7:16 AM,57.2,55.4,94,30.09,10.0,East,5.8,-,N/A,,Overcast,80,2013-08-04 15:16:00
7:56 AM,56.8,54.9,93,30.10,7.0,East,8.1,-,N/A,,Overcast,80,2013-08-04 15:56:00
8:56 AM,56.8,55.9,97,30.09,6.0,East,10.4,-,N/A,,Overcast,80,2013-08-04 16:56:00
9:56 AM,56.8,55.9,97,30.09,4.0,East,9.2,-,N/A,,Overcast,80,2013-08-04 17:56:00
10:56 AM,57.9,55.9,93,30.09,9.0,East,9.2,-,0.00,Rain,Light Rain,90,2013-08-04 18:56:00
11:08 AM,57.2,55.4,94,30.09,2.0,East,8.1,-,0.01,Rain,Light Rain,80,2013-08-04 19:08:00
11:26 AM,57.2,55.4,94,30.09,5.0,East,6.9,-,0.01,,Overcast,80,2013-08-04 19:26:00
11:56 AM,57.9,55.9,93,30.09,10.0,East,8.1,-,0.01,,Overcast,80,2013-08-04 19:56:00
12:56 PM,57.9,55.9,93,30.10,7.0,East,10.4,-,0.00,,Overcast,80,2013-08-04 20:56:00
1:56 PM,59.0,56.8,93,30.09,6.0,East,9.2,-,0.00,Rain,Light Rain,80,2013-08-04 21:56:00
2:21 PM,57.2,57.2,100,30.09,6.0,East,9.2,-,0.00,,Overcast,80,2013-08-04 22:21:00
2:56 PM,59.0,56.8,93,30.09,8.0,East,9.2,-,0.00,,Overcast,90,2013-08-04 22:56:00
3:56 PM,57.2,57.2,100,30.08,7.0,East,9.2,-,N/A,Rain,Light Rain,90,2013-08-04 23:56:00
4:18 PM,59.0,57.2,94,30.08,4.0,East,9.2,-,0.00,Rain,Light Rain,90,2013-08-05 00:18:00
4:33 PM,57.2,55.4,94,30.08,6.0,East,8.1,-,0.01,Rain,Light Rain,80,2013-08-05 00:33:00
4:56 PM,57.9,55.9,93,30.08,4.0,East,9.2,-,0.01,Rain,Light Rain,100,2013-08-05 00:56:00
5:06 PM,57.2,55.4,94,30.07,4.0,East,10.4,-,0.01,Rain,Light Rain,80,2013-08-05 01:06:00
5:26 PM,57.2,55.4,94,30.07,8.0,East,11.5,-,0.02,Rain,Light Rain,80,2013-08-05 01:26:00
5:56 PM,57.9,55.9,93,30.08,10.0,East,6.9,-,0.02,,Overcast,90,2013-08-05 01:56:00
6:56 PM,57.2,55.4,94,30.06,10.0,East,9.2,-,N/A,,Overcast,100,2013-08-05 02:56:00
7:56 PM,57.9,55.9,93,30.07,10.0,East,6.9,-,0.00,,Mostly Cloudy,90,2013-08-05 03:56:00
8:56 PM,56.8,55.9,97,30.07,2.0,East,9.2,-,0.01,Rain,Light Rain,90,2013-08-05 04:56:00
9:09 PM,57.2,55.4,94,30.05,3.0,ENE,8.1,-,0.00,Rain,Light Rain,70,2013-08-05 05:09:00
9:32 PM,57.2,55.4,94,30.06,6.0,East,8.1,-,0.01,,Overcast,90,2013-08-05 05:32:00
9:56 PM,56.8,55.9,97,30.07,8.0,East,8.1,-,0.01,Rain,Light Rain,90,2013-08-05 05:56:00
10:35 PM,57.2,57.2,100,30.06,7.0,East,6.9,-,0.00,Rain,Light Rain,80,2013-08-05 06:35:00
10:56 PM,56.8,55.9,97,30.07,2.5,East,6.9,-,0.02,Rain,Light Rain,90,2013-08-05 06:56:00
11:11 PM,57.2,57.2,100,30.06,5.0,East,5.8,-,0.01,Rain,Light Rain,100,2013-08-05 07:11:00
11:27 PM,57.2,57.2,100,30.06,9.0,East,6.9,-,0.01,,Overcast,90,2013-08-05 07:27:00
11:56 PM,56.8,56.8,100,30.06,5.0,East,5.8,-,0.01,Rain,Light Rain,90,2013-08-05 07:56:00